Location: Harwich
(41.7160°N, 69.9939°W)
Time: 13:39:06
(UTC+02:00)

BlueWalker 3 - Pass Details

Date: 03 March 2024
Orbit: 485 x 495 km, 53.2° (Epoch: 23 April)

Event Time Altitude Azimuth Distance (km) Brightness Sun altitude
Rises 02:26:00 0° 299° (WNW) 2,555 6.6 -32.6°
Reaches altitude 10° 02:28:22 10° 288° (WNW) 1,669 5.4 -33.0°
Enters shadow 02:29:01 14° 283° (WNW) 1,448 5.0 -33.2°
